Printer-friendly version

IAU Minor Planet Center

Minor Planet Center

MPEC 2006-O43 : 2006 OE7

The following Minor Planet Electronic Circular may be linked-to from your own Web pages, but must not otherwise be redistributed electronically.


Read MPEC 2006-O42 Read MPEC 2006-O44


M.P.E.C. 2006-O43                                Issued 2006 July 25, 10:10 UT

     The Minor Planet Electronic Circulars contain information on unusual
         minor planets and routine data on comets.  They are published
   on behalf of Commission 20 of the International Astronomical Union by the
          Minor Planet Center, Smithsonian Astrophysical Observatory,
                          Cambridge, MA 02138, U.S.A.

                  Supported in part by the Brinson Foundation
                  Supported in part by the TABASGO Foundation
             Prepared using the Tamkin Foundation Computer Network

                              MPC@CFA.HARVARD.EDU
          URL http://cfa-www.harvard.edu/iau/mpc.html  ISSN 1523-6714

                                   2006 OE7

Observations:
     K06O07E* C2006 07 24.34372 00 18 01.07 +19 29 08.3          19.1   EO043704
     K06O07E  C2006 07 24.35473 00 18 06.10 +19 30 20.1          19.0   EO043704
     K06O07E  C2006 07 24.36570 00 18 10.89 +19 31 32.1          19.3   EO043704
     K06O07E  C2006 07 24.37614 00 18 15.65 +19 32 41.5          19.0   EO043704
     K06O07E  C2006 07 25.04005 00 23 29.21 +20 46 45.8          20.2 R EO043J95
     K06O07E  C2006 07 25.04472 00 23 31.45 +20 47 18.5          19.5 R EO043J95
     K06O07E  C2006 07 25.04751 00 23 32.78 +20 47 37.1          21.0 R EO043J95
     K06O07E  C2006 07 25.05332 00 23 35.66 +20 48 17.8          19.9 R EO043J95
     K06O07E  C2006 07 25.26671 00 25 21.99 +21 13 03.0          19.8 R EO043734
     K06O07E  C2006 07 25.27178 00 25 24.35 +21 13 35.7          20.0 R EO043734
     K06O07E  C2006 07 25.28257 00 25 29.70 +21 14 50.9          19.9 R EO043734

Observer details:
704 Lincoln Laboratory ETS, New Mexico.  Observers M. Bezpalko, L. Manguso,
    D. Torres, R. Kracke, H. Love, G. Spitz, J. Kistler.  Measurers J. Stuart,
    J. Kommers.  1.0-m f/2.15 reflector + CCD.
734 Farpoint Observatory.  Observer D. Tibbets.  Measurer G. Hug.  0.7-m
    reflector + CCD.
J95 Great Shefford.  Observer P. Birtwhistle.  0.40-m f/6.0 Schmidt-Cassegrain
    + CCD.

Orbital elements:
2006 OE7                                                 Earth MOID = 0.0916 AU
Epoch 2006 Sept. 22.0 TT = JDT 2454000.5                MPC
M   2.37145              (2000.0)            P               Q
n   0.46620926     Peri.  149.62841     +0.12891778     -0.97650037
a   1.6472093      Node   292.48855     +0.86809166     +0.19531888
e   0.7963397      Incl.   10.77308     +0.47937153     -0.09109099
P   2.11           H   20.3           G   0.15           U   9
Residuals in seconds of arc
060724 704  1.0-  0.3+    060725 J95  0.2-  0.3-    060725 734 (1.7+  3.4+)
060724 704  0.5+  0.3-    060725 J95  0.5-  0.2+    060725 734  0.5-  0.5+
060724 704  1.1-  0.4-    060725 J95  0.8-  0.5-    060725 734  0.5-  0.2-
060724 704  0.2+  0.4+    060725 J95  0.2+  0.1+

Ephemeris:
2006 OE7                 a,e,i = 1.65, 0.80, 11                  q = 0.3355
Date    TT    R. A. (2000) Decl.     Delta      r     Elong.  Phase     V
2006 07 24    00 15.43   +18 52.2    0.308    1.153   108.9    56.5    20.1
2006 07 25    00 23.14   +20 42.4    0.294    1.139   107.3    58.4    20.0
2006 07 26    00 31.70   +22 40.7    0.282    1.125   105.6    60.5    20.0
2006 07 27    00 41.27   +24 47.3    0.270    1.110   103.5    62.8    19.9
2006 07 28    00 52.01   +27 02.1    0.259    1.096   101.2    65.4    19.9
2006 07 29    01 04.12   +29 24.5    0.248    1.081    98.6    68.2    19.8
2006 07 30    01 17.80   +31 53.4    0.239    1.066    95.8    71.3    19.8
2006 07 31    01 33.32   +34 26.9    0.231    1.051    92.6    74.7    19.8
2006 08 01    01 50.90   +37 01.9    0.224    1.036    89.2    78.3    19.9
2006 08 02    02 10.77   +39 34.4    0.218    1.021    85.5    82.1    19.9
2006 08 03    02 33.09   +41 59.2    0.214    1.006    81.7    86.2    20.0
2006 08 04    02 57.85   +44 10.3    0.212    0.991    77.6    90.4    20.1
2006 08 05    03 24.87   +46 01.7    0.211    0.976    73.4    94.6    20.2
2006 08 06    03 53.64   +47 27.8    0.211    0.960    69.2    98.9    20.4
2006 08 07    04 23.42   +48 24.9    0.214    0.944    65.1   103.1    20.6
2006 08 08    04 53.27   +48 51.8    0.217    0.929    61.1   107.1    20.8
2006 08 09    05 22.23   +48 49.9    0.223    0.913    57.2   111.0    21.1
2006 08 10    05 49.52   +48 22.7    0.230    0.897    53.6   114.5    21.3
2006 08 11    06 14.61   +47 35.2    0.238    0.880    50.2   117.8    21.6
2006 08 12    06 37.25   +46 32.5    0.247    0.864    47.1   120.8    21.9
2006 08 13    06 57.43   +45 19.4    0.258    0.848    44.2   123.5    22.1

Timothy B. Spahr             (C) Copyright 2006 MPC           M.P.E.C. 2006-O43

Read MPEC 2006-O42 Read MPEC 2006-O44


Our Web policy. Index to the CBAT/MPC/ICQ pages.


Valid HTML 4.01!